Weather History for Winnipeg, MB

Change the Weather History Date:

Monday, March 31, 2014

  Actual Average Record
Temperature  
Mean Temperature 12 °F -  
Max Temperature 17 °F 36 °F 64 °F (2012)
Min Temperature 8 °F 20 °F 8 °F (2014)
Degree Days  
Heating Degree Days 52    
Moisture  
Dew Point 2 °F    
Average Humidity 65    
Maximum Humidity 73    
Minimum Humidity 58    
Precipitation  
Precipitation 0.00 in - - ()
Sea Level Pressure  
Sea Level Pressure 30.20 in    
Wind  
Wind Speed 24 mph ()    
Max Wind Speed 32 mph    
Max Gust Speed 40 mph    
Visibility 15.0 miles    
Events      
Averages and records for this station are not official NWS values.
T = Trace of Precipitation, MM = Missing Value Source: Averaged Metar Reports

Daily Weather History Graph

Daily Weather History Graph

Search for Another Location

Airport:

Trip Planner

Search our weather history database for the weather conditions in past years. The results will help you decide how hot, cold, wet, or windy it might be!

Date:

Astronomy

Mar. 31, 2014 Rise Set
Actual Time 7:07 AM CDT 7:59 PM CDT
Civil Twilight 6:35 AM CDT 8:32 PM CDT
Nautical Twilight 5:55 AM CDT 9:11 PM CDT
Astronomical Twilight 5:14 AM CDT 9:53 PM CDT
Moon 7:26 AM CDT (3/31) 9:28 PM CDT (3/31)
Length of Visible Light 13h 57m
Length of Day
12h 51m
New Moon, 1% of the Moon is Illuminated
Mar 31
New Moon
Apr 7
First Quarter
Apr 15
Full
Apr 22
Last Quarter
Apr 29
New

Hourly Weather History & Observations

Time (CDT) Temp. Windchill Dew Point Humidity Pressure Visibility Wind Dir Wind Speed Gust Speed Precip Events Conditions
12:00 AM 10.4 °F -10.7 °F 1.4 °F 67% 30.25 in 15.0 mi NNE 26.5 mph 33.4 mph N/A   Overcast
1:00 AM 8.6 °F -13.8 °F -0.4 °F 67% 30.25 in 15.0 mi NNE 28.8 mph 35.7 mph N/A   Overcast
2:00 AM 10.4 °F -11.4 °F 1.4 °F 67% 30.25 in 15.0 mi NNE 28.8 mph - N/A   Overcast
3:00 AM 10.4 °F -9.9 °F 1.4 °F 67% 30.24 in 15.0 mi NNE 24.2 mph 31.1 mph N/A   Overcast
4:00 AM 10.4 °F -10.3 °F 1.4 °F 67% 30.24 in 15.0 mi NNE 25.3 mph 34.5 mph N/A   Overcast
5:00 AM 8.6 °F -12.7 °F -0.4 °F 67% 30.25 in 15.0 mi NNE 25.3 mph 31.1 mph N/A   Overcast
6:00 AM 8.6 °F -13.8 °F -0.4 °F 67% 30.25 in 15.0 mi NNE 28.8 mph 36.8 mph N/A   Overcast
7:00 AM 8.6 °F -13.1 °F -0.4 °F 67% 30.23 in 15.0 mi NNE 26.5 mph 33.4 mph N/A   Overcast
8:00 AM 8.6 °F -13.1 °F 1.4 °F 73% 30.23 in 15.0 mi NNE 26.5 mph 34.5 mph N/A   Overcast
9:00 AM 8.6 °F -14.1 °F -0.4 °F 67% 30.24 in 15.0 mi NNE 29.9 mph 38.0 mph N/A   Overcast
10:00 AM 8.6 °F -13.8 °F -0.4 °F 67% 30.25 in 15.0 mi NNE 28.8 mph 39.1 mph N/A   Overcast
11:00 AM 8.6 °F -14.1 °F -0.4 °F 67% 30.22 in 15.0 mi NNE 29.9 mph 40.3 mph N/A   Overcast
12:00 PM 8.6 °F -14.8 °F -0.4 °F 67% 30.22 in 15.0 mi NNE 32.2 mph 39.1 mph N/A   Overcast
1:00 PM 10.4 °F -10.7 °F 1.4 °F 67% 30.22 in 15.0 mi NNE 26.5 mph 38.0 mph N/A   Overcast
2:00 PM 12.2 °F -9.3 °F 1.4 °F 62% 30.17 in 15.0 mi NNE 29.9 mph 39.1 mph N/A   Overcast
3:00 PM 14.0 °F -6.8 °F 3.2 °F 62% 30.14 in 15.0 mi NNE 29.9 mph 40.3 mph N/A   Overcast
4:00 PM 15.8 °F -4.7 °F 3.2 °F 58% 30.13 in 15.0 mi NNE 31.1 mph 39.1 mph N/A   Overcast
5:00 PM 15.8 °F -5.0 °F 5.0 °F 62% 30.13 in 15.0 mi NNE 32.2 mph 38.0 mph N/A   Overcast
6:00 PM 17.6 °F -1.3 °F 5.0 °F 58% 30.12 in 15.0 mi NNE 27.6 mph 36.8 mph N/A   Overcast
7:00 PM 17.6 °F -1.3 °F 6.8 °F 63% 30.13 in 15.0 mi NNE 27.6 mph 35.7 mph N/A   Overcast
8:00 PM 15.8 °F -3.4 °F 5.0 °F 62% 30.14 in 15.0 mi North 26.5 mph 33.4 mph N/A   Overcast
9:00 PM 15.8 °F -1.9 °F 5.0 °F 62% 30.16 in 15.0 mi North 21.9 mph 31.1 mph N/A   Overcast
10:00 PM 15.8 °F -2.3 °F 5.0 °F 62% 30.14 in 15.0 mi North 23.0 mph 29.9 mph N/A   Overcast
11:00 PM 15.8 °F -1.9 °F 5.0 °F 62% 30.12 in 15.0 mi North 21.9 mph 29.9 mph N/A   Overcast